weather.gov     
National Weather Service

Regional Weather Roundup
NWS Homepage
This page is being discontinued on March 12, 2014.
The same data is available at this site. Please update your bookmarks.
Thank you, and we apologize for the inconvenience.
Please send an email to SR-SRH.Webmaster@noaa.gov with any concerns.


Current Version
Previous Version:    01  02  03  04  05  06  07  08  09  10  11  12  13  14  15  16  17  18  19  20  21  22  23  24  25  26  27  
[Printable]
229
ASUS44 KLZK 230605
RWRLZK

WEATHER ROUNDUP FOR ARKANSAS
NATIONAL WEATHER SERVICE LITTLE ROCK AR
100 AM CDT THU OCT 23 2014

NOTE: "FAIR" INDICATES FEW OR NO CLOUDS BELOW 12,000 FEET WITH NO
SIGNIFICANT WEATHER AND/OR OBSTRUCTIONS TO VISIBILITY.

ARZ001-003-010-029-230700-
NORTHWEST ARKANSAS

CITY           SKY/WX    TMP DP  RH WIND       PRES   REMARKS
FAYETTEVILLE   CLOUDY    49  49 100 CALM      30.16F
6HR MIN TEMP:  48; 6HR MAX TEMP:  63;

FORT SMITH     MOCLDY    58  53  84 NE6       30.15F
6HR MIN TEMP:  57; 6HR MAX TEMP:  65;

HARRISON       CLEAR     50  48  93 SE7       30.19S
6HR MIN TEMP:  48; 6HR MAX TEMP:  60;

BENTONVILLE    MOCLDY    55  48  76 SE5       30.15F
6HR MIN TEMP:  55; 6HR MAX TEMP:  66;

ROGERS         MOCLDY    56  51  84 SE7       30.16F
6HR MIN TEMP:  55; 6HR MAX TEMP:  66;

SILOAM SPGS    CLOUDY    57  46  67 SE5       30.16S
6HR MIN TEMP:  55; 6HR MAX TEMP:  64;

HIGHFILL       CLOUDY    56  50  80 S3        30.15F
6HR MIN TEMP:  54; 6HR MAX TEMP:  67;

$$

ARZ004-005-016-230700-
NORTH CENTRAL ARKANSAS

CITY           SKY/WX    TMP DP  RH WIND       PRES   REMARKS
BATESVILLE     CLEAR     45  43  93 NW5       30.20F
6HR MIN TEMP:  45; 6HR MAX TEMP:  59;

FLIPPIN        CLEAR     46  39  76 CALM      30.21R
6HR MIN TEMP:  45; 6HR MAX TEMP:  61;

MTN HOME       CLEAR     50  42  74 CALM      30.19F
6HR MIN TEMP:  50; 6HR MAX TEMP:  58;

$$

ARZ040-041-230700-
WEST CENTRAL ARKANSAS

CITY           SKY/WX    TMP DP  RH WIND       PRES   REMARKS
MENA           PTCLDY    52  50  93 CALM      30.18F
MOUNT IDA      CLEAR     48  47  96 W3        30.17R FOG
6HR MIN TEMP:  48; 6HR MAX TEMP:  60;

$$

ARZ009-017-025-026-028-230700-
NORTHEAST ARKANSAS

CITY           SKY/WX    TMP DP  RH WIND       PRES   REMARKS
CORNING        FAIR      46  43  87 NE3       30.22R
JONESBORO      CLEAR     47  42  83 CALM      30.21S
6HR MIN TEMP:  46; 6HR MAX TEMP:  55;

NEWPORT        CLEAR     47  45  93 NE7       30.21F
6HR MIN TEMP:  46; 6HR MAX TEMP:  57; 6HR PCP: TRACE;

WALNUT RIDGE   CLEAR     46  37  71 N3        30.21S
6HR MIN TEMP:  46; 6HR MAX TEMP:  57;

BLYTHEVILLE    CLEAR     46  43  89 NE3       30.21S
6HR MIN TEMP:  45; 6HR MAX TEMP:  56;

$$

ARZ022-023-033-042-044-230700-
CENTRAL ARKANSAS

CITY           SKY/WX    TMP DP  RH WIND       PRES   REMARKS
LITTLE ROCK    CLEAR     51  43  74 CALM      30.19F
6HR MIN TEMP:  50; 6HR MAX TEMP:  59;

N LITTLE ROCK    N/A     52  45  77 NE7       30.19F
6HR MIN TEMP:  52; 6HR MAX TEMP:  59;

JACKSONVILLE   CLEAR     44  42  91 CALM      30.19S
6HR MIN TEMP:  44; 6HR MAX TEMP:  58;

SEARCY         CLEAR     46  43  89 CALM      30.21S
6HR MIN TEMP:  45; 6HR MAX TEMP:  58;

HOT SPRINGS    CLEAR     51  46  83 CALM      30.18F
6HR MIN TEMP:  50; 6HR MAX TEMP:  64;

RUSSELLVILLE   PTCLDY    48  46  93 CALM      30.18F
6HR MIN TEMP:  48; 6HR MAX TEMP:  60;

$$

ARZ036-230700-
EAST ARKANSAS

CITY           SKY/WX    TMP DP  RH WIND       PRES   REMARKS
WEST MEMPHIS   CLEAR     47  45  93 CALM      30.19R
6HR MIN TEMP:  46; 6HR MAX TEMP:  57;

$$

ARZ050-053-066-070-073-230700-
SOUTHWEST ARKANSAS

CITY           SKY/WX    TMP DP  RH WIND       PRES   REMARKS
ARKADELPHIA    FAIR      51  51 100 SW3       30.18F
6HR MIN TEMP:  51; 6HR MAX TEMP:  64;

CAMDEN         FOG       46  45  93 CALM      30.16F VSB 1/2
TEXARKANA      CLOUDY    56  52  86 CALM      30.15F
6HR MIN TEMP:  54; 6HR MAX TEMP:  65;

EL DORADO      CLEAR     49  48  97 NE3       30.15F
6HR MIN TEMP:  48; 6HR MAX TEMP:  62;

DE QUEEN       CLOUDY    55  53  93 E5        30.14F
6HR MIN TEMP:  53; 6HR MAX TEMP:  63;

$$

ARZ056-057-069-230700-
SOUTHEAST ARKANSAS

CITY           SKY/WX    TMP DP  RH WIND       PRES   REMARKS
PINE BLUFF     CLEAR     49  44  83 CALM      30.18F
6HR MIN TEMP:  48; 6HR MAX TEMP:  61;

STUTTGART      CLEAR     46  41  81 N7        30.19S
6HR MIN TEMP:  46; 6HR MAX TEMP:  57;

MONTICELLO     CLEAR     47  44  90 CALM      30.17S
6HR MIN TEMP:  47; 6HR MAX TEMP:  61; 6HR PCP: TRACE;


$$






U.S. Dept. of Commerce
NOAA National Weather Service
1325 East West Highway
Silver Spring, MD 20910
E-mail: w-nws.webmaster@noaa.gov
Page last modified: May 16, 2007
NATIONAL WEATHER SERVICE: for Safety, for Work, for Fun - FOR LIFE